When you browse on this site, cookies collect data to enhance your experience and personalize the content and advertising you see.
Visit our Privacy Policy to learn more. By continuing to use the site, you agree to this use of cookies and data.
  • In Österreich
  • Länderverzeichnis
  • Für 7 Tage
  • Wassertemperatur
  • Satellitenkarten
  • Wetterkarte
  • News
  • Widgets
  • user-avatar
    Anmelden

    Stündliche Wetter Rottnest Island

    Heute, 17 Februar, Sonntag

    Zeit Temperatur Niederschläge Wind Luftdruck Luftfeuchtigkeit
    00:00 +24°C° 0 mm 7 m/S 762 mmHg 59%
    01:00 +23°C° 0 mm 7 m/S 762 mmHg 62%
    02:00 +22°C° 0 mm 6 m/S 762 mmHg 65%
    03:00 +21°C° 0 mm 6 m/S 762 mmHg 66%
    04:00 +21°C° 0 mm 7 m/S 762 mmHg 66%
    05:00 +20°C° 0 mm 7 m/S 762 mmHg 67%
    06:00 +20°C° 0 mm 7 m/S 762 mmHg 65%
    07:00 +20°C° 0 mm 6 m/S 762 mmHg 63%
    08:00 +21°C° 0 mm 6 m/S 763 mmHg 61%
    09:00 +22°C° 0 mm 5 m/S 762 mmHg 56%
    10:00 +25°C° 0 mm 4 m/S 762 mmHg 52%
    11:00 +26°C° 0 mm 3 m/S 762 mmHg 47%
    12:00 +27°C° 0 mm 5 m/S 761 mmHg 45%
    13:00 +28°C° 0 mm 6 m/S 761 mmHg 42%
    14:00 +29°C° 0 mm 8 m/S 760 mmHg 40%
    15:00 +29°C° 0 mm 8 m/S 760 mmHg 41%
    16:00 +28°C° 0 mm 8 m/S 759 mmHg 42%
    17:00 +28°C° 0 mm 9 m/S 759 mmHg 44%
    18:00 +27°C° 0 mm 8 m/S 759 mmHg 47%
    19:00 +26°C° 0 mm 8 m/S 759 mmHg 50%
    20:00 +24°C° 0 mm 7 m/S 759 mmHg 54%
    21:00 +24°C° 0 mm 7 m/S 759 mmHg 48%
    22:00 +26°C° 0 mm 7 m/S 759 mmHg 42%
    23:00 +26°C° 0 mm 7 m/S 759 mmHg 36%

    Morgen, 18 Februar, Montag

    Zeit Temperatur Niederschläge Wind Luftdruck Luftfeuchtigkeit
    00:00 +24°C° 0 mm 7 m/S 759 mmHg 42%
    01:00 +23°C° 0 mm 8 m/S 759 mmHg 47%
    02:00 +22°C° 0 mm 8 m/S 759 mmHg 52%
    03:00 +22°C° 0 mm 9 m/S 759 mmHg 54%
    04:00 +21°C° 0 mm 9 m/S 759 mmHg 56%
    05:00 +21°C° 0 mm 9 m/S 759 mmHg 58%
    06:00 +21°C° 0 mm 8 m/S 760 mmHg 57%
    07:00 +21°C° 0 mm 7 m/S 760 mmHg 56%
    08:00 +21°C° 0 mm 7 m/S 760 mmHg 56%
    09:00 +23°C° 0 mm 5 m/S 760 mmHg 53%
    10:00 +26°C° 0 mm 4 m/S 760 mmHg 49%
    11:00 +28°C° 0 mm 2 m/S 760 mmHg 46%
    12:00 +29°C° 0 mm 4 m/S 759 mmHg 44%
    13:00 +30°C° 0 mm 5 m/S 758 mmHg 42%
    14:00 +32°C° 0 mm 7 m/S 758 mmHg 40%
    15:00 +30°C° 0 mm 7 m/S 758 mmHg 41%
    16:00 +29°C° 0 mm 8 m/S 757 mmHg 42%
    17:00 +28°C° 0 mm 9 m/S 757 mmHg 44%
    18:00 +28°C° 0 mm 9 m/S 757 mmHg 45%
    19:00 +27°C° 0 mm 9 m/S 757 mmHg 46%
    20:00 +26°C° 0 mm 9 m/S 757 mmHg 47%
    21:00 +26°C° 0 mm 8 m/S 757 mmHg 48%
    22:00 +26°C° 0 mm 8 m/S 758 mmHg 49%
    23:00 +24°C° 0 mm 7 m/S 758 mmHg 49%

    übermorgen, 19 Februar, Dienstag

    Zeit Temperatur Niederschläge Wind Luftdruck Luftfeuchtigkeit
    00:00 +24°C° 0 mm 7 m/S 758 mmHg 48%
    01:00 +24°C° 0 mm 6 m/S 757 mmHg 47%
    02:00 +26°C° 0 mm 5 m/S 757 mmHg 46%
    03:00 +25°C° 0 mm 5 m/S 757 mmHg 48%
    04:00 +25°C° 0 mm 5 m/S 757 mmHg 50%
    05:00 +23°C° 0 mm 5 m/S 757 mmHg 53%
    06:00 +25°C° 0 mm 5 m/S 757 mmHg 52%
    07:00 +25°C° 0 mm 5 m/S 757 mmHg 52%
    08:00 +26°C° 0 mm 4 m/S 757 mmHg 51%
    09:00 +27°C° 0 mm 5 m/S 757 mmHg 47%
    10:00 +29°C° 0 mm 5 m/S 757 mmHg 43%
    11:00 +32°C° 0 mm 5 m/S 757 mmHg 38%
    12:00 +32°C° 0 mm 6 m/S 756 mmHg 40%
    13:00 +31°C° 0 mm 8 m/S 756 mmHg 42%
    14:00 +31°C° 0 mm 9 m/S 755 mmHg 43%
    15:00 +29°C° 0 mm 9 m/S 755 mmHg 47%
    16:00 +28°C° 0 mm 9 m/S 755 mmHg 51%
    17:00 +27°C° 0 mm 9 m/S 755 mmHg 54%
    18:00 +27°C° 0 mm 9 m/S 755 mmHg 57%
    19:00 +26°C° 0 mm 8 m/S 756 mmHg 60%
    20:00 +26°C° 0 mm 8 m/S 756 mmHg 63%
    21:00 +26°C° 0 mm 8 m/S 756 mmHg 63%
    22:00 +26°C° 0 mm 7 m/S 757 mmHg 63%
    23:00 +24°C° 0 mm 7 m/S 757 mmHg 63%

    20 Februar, Mittwoch

    Zeit Temperatur Niederschläge Wind Luftdruck Luftfeuchtigkeit
    00:00 +24°C° 0 mm 6 m/S 757 mmHg 61%
    01:00 +25°C° 0 mm 5 m/S 757 mmHg 60%
    02:00 +25°C° 0 mm 4 m/S 756 mmHg 59%
    03:00 +25°C° 0 mm 4 m/S 756 mmHg 61%
    04:00 +23°C° 0 mm 4 m/S 756 mmHg 63%
    05:00 +23°C° 0 mm 4 m/S 756 mmHg 66%
    06:00 +23°C° 0 mm 4 m/S 757 mmHg 64%
    07:00 +25°C° 0 mm 4 m/S 757 mmHg 63%
    08:00 +25°C° 0 mm 3 m/S 757 mmHg 61%
    09:00 +27°C° 0 mm 3 m/S 757 mmHg 57%
    10:00 +28°C° 0 mm 3 m/S 757 mmHg 52%
    11:00 +30°C° 0 mm 3 m/S 757 mmHg 48%
    12:00 +29°C° 0 mm 4 m/S 757 mmHg 51%
    13:00 +28°C° 0 mm 5 m/S 756 mmHg 53%
    14:00 +28°C° 0 mm 6 m/S 756 mmHg 56%
    15:00 +27°C° 0 mm 6 m/S 756 mmHg 61%
    16:00 +26°C° 0 mm 7 m/S 756 mmHg 65%
    17:00 +24°C° 0 mm 7 m/S 756 mmHg 70%
    18:00 +23°C° 0 mm 6 m/S 756 mmHg 75%
    19:00 +23°C° 0 mm 6 m/S 757 mmHg 79%
    20:00 +22°C° 0 mm 5 m/S 757 mmHg 84%
    21:00 +22°C° 0 mm 5 m/S 758 mmHg 85%
    22:00 +22°C° 0 mm 5 m/S 758 mmHg 86%
    23:00 +21°C° 0 mm 4 m/S 758 mmHg 87%

    21 Februar, Donnerstag

    Zeit Temperatur Niederschläge Wind Luftdruck Luftfeuchtigkeit
    00:00 +21°C° 0 mm 4 m/S 758 mmHg 87%
    01:00 +21°C° 0 mm 4 m/S 758 mmHg 87%
    02:00 +21°C° 0 mm 4 m/S 757 mmHg 87%
    03:00 +21°C° 0 mm 4 m/S 757 mmHg 86%
    04:00 +21°C° 0 mm 4 m/S 757 mmHg 85%
    05:00 +21°C° 0 mm 4 m/S 757 mmHg 85%
    06:00 +21°C° 0.1 mm 4 m/S 758 mmHg 84%
    07:00 +21°C° 0.1 mm 4 m/S 758 mmHg 83%
    08:00 +21°C° 0.1 mm 4 m/S 759 mmHg 83%
    09:00 +22°C° 0 mm 4 m/S 759 mmHg 81%
    10:00 +22°C° 0 mm 4 m/S 759 mmHg 80%
    11:00 +22°C° 0 mm 4 m/S 760 mmHg 79%
    12:00 +22°C° 0 mm 4 m/S 759 mmHg 77%
    13:00 +23°C° 0 mm 5 m/S 759 mmHg 74%
    14:00 +23°C° 0 mm 5 m/S 759 mmHg 72%
    15:00 +23°C° 0 mm 5 m/S 759 mmHg 72%
    16:00 +23°C° 0 mm 5 m/S 759 mmHg 72%
    17:00 +23°C° 0 mm 5 m/S 759 mmHg 72%
    18:00 +22°C° 0 mm 5 m/S 759 mmHg 74%
    19:00 +21°C° 0 mm 4 m/S 760 mmHg 75%
    20:00 +21°C° 0 mm 4 m/S 760 mmHg 77%
    21:00 +21°C° 0 mm 4 m/S 760 mmHg 77%
    22:00 +20°C° 0 mm 4 m/S 760 mmHg 78%
    23:00 +20°C° 0 mm 4 m/S 760 mmHg 78%

    22 Februar, Freitag

    Zeit Temperatur Niederschläge Wind Luftdruck Luftfeuchtigkeit
    00:00 +20°C° 0 mm 4 m/S 760 mmHg 79%
    01:00 +20°C° 0 mm 4 m/S 760 mmHg 81%
    02:00 +20°C° 0 mm 4 m/S 760 mmHg 82%
    03:00 +19°C° 0 mm 4 m/S 760 mmHg 80%
    04:00 +19°C° 0 mm 4 m/S 760 mmHg 78%
    05:00 +19°C° 0 mm 3 m/S 760 mmHg 76%
    06:00 +20°C° 0 mm 3 m/S 760 mmHg 71%
    07:00 +20°C° 0 mm 3 m/S 761 mmHg 66%
    08:00 +21°C° 0 mm 2 m/S 761 mmHg 61%
    09:00 +23°C° 0 mm 2 m/S 761 mmHg 58%
    10:00 +25°C° 0 mm 3 m/S 761 mmHg 55%
    11:00 +26°C° 0 mm 3 m/S 761 mmHg 53%
    12:00 +26°C° 0 mm 4 m/S 760 mmHg 55%
    13:00 +26°C° 0 mm 5 m/S 760 mmHg 58%
    14:00 +26°C° 0 mm 6 m/S 760 mmHg 60%
    15:00 +24°C° 0 mm 6 m/S 759 mmHg 64%
    16:00 +24°C° 0 mm 6 m/S 759 mmHg 67%
    17:00 +24°C° 0 mm 7 m/S 759 mmHg 70%
    18:00 +23°C° 0 mm 6 m/S 760 mmHg 74%
    19:00 +22°C° 0 mm 6 m/S 760 mmHg 78%
    20:00 +22°C° 0 mm 6 m/S 760 mmHg 82%
    21:00 +21°C° 0 mm 5 m/S 760 mmHg 83%
    22:00 +21°C° 0 mm 5 m/S 761 mmHg 84%
    23:00 +21°C° 0 mm 5 m/S 761 mmHg 86%
    Mehr zeigen